Meteo pe oră la

Astăzi, 1 Martie, Luni

Timp Temperatura Precipitaţii Vânt Presiune Umiditate
00:00 +26°C° 0 mm 3 m/s 757 mmHg 75%
01:00 +26°C° 0 mm 3 m/s 757 mmHg 77%
02:00 +25°C° 0 mm 3 m/s 756 mmHg 79%
03:00 +25°C° 0 mm 3 m/s 756 mmHg 81%
04:00 +24°C° 0 mm 2 m/s 756 mmHg 83%
05:00 +24°C° 0 mm 2 m/s 756 mmHg 84%
06:00 +24°C° 0 mm 2 m/s 757 mmHg 86%
07:00 +26°C° 0 mm 3 m/s 757 mmHg 76%
08:00 +28°C° 0 mm 4 m/s 757 mmHg 67%
09:00 +30°C° 0 mm 4 m/s 758 mmHg 58%
10:00 +33°C° 0 mm 4 m/s 757 mmHg 50%
11:00 +36°C° 0 mm 4 m/s 757 mmHg 42%
12:00 +38°C° 0 mm 4 m/s 756 mmHg 34%
13:00 +38°C° 0 mm 4 m/s 756 mmHg 32%
14:00 +40°C° 0 mm 4 m/s 755 mmHg 30%
15:00 +40°C° 0 mm 4 m/s 754 mmHg 29%
16:00 +37°C° 0 mm 3 m/s 754 mmHg 35%
17:00 +36°C° 0 mm 3 m/s 755 mmHg 40%
18:00 +34°C° 0 mm 3 m/s 755 mmHg 46%
19:00 +31°C° 0 mm 3 m/s 756 mmHg 49%
20:00 +30°C° 0 mm 3 m/s 756 mmHg 52%
21:00 +29°C° 0 mm 3 m/s 757 mmHg 55%
22:00 +28°C° 0 mm 3 m/s 757 mmHg 61%
23:00 +27°C° 0 mm 3 m/s 757 mmHg 67%

Mâine, 2 Martie, Marţi

Timp Temperatura Precipitaţii Vânt Presiune Umiditate
00:00 +26°C° 0 mm 3 m/s 758 mmHg 72%
01:00 +25°C° 0 mm 3 m/s 757 mmHg 75%
02:00 +24°C° 0 mm 2 m/s 757 mmHg 79%
03:00 +24°C° 0 mm 2 m/s 757 mmHg 82%
04:00 +23°C° 0 mm 2 m/s 757 mmHg 85%
05:00 +23°C° 0 mm 2 m/s 758 mmHg 88%
06:00 +23°C° 0 mm 2 m/s 758 mmHg 91%
07:00 +25°C° 0 mm 2 m/s 759 mmHg 81%
08:00 +27°C° 0 mm 2 m/s 759 mmHg 71%
09:00 +30°C° 0 mm 3 m/s 760 mmHg 61%
10:00 +33°C° 0 mm 3 m/s 759 mmHg 52%
11:00 +35°C° 0 mm 2 m/s 759 mmHg 44%
12:00 +37°C° 0 mm 2 m/s 758 mmHg 36%
13:00 +37°C° 0 mm 2 m/s 757 mmHg 36%
14:00 +36°C° 0 mm 2 m/s 757 mmHg 37%
15:00 +36°C° 0 mm 2 m/s 756 mmHg 37%
16:00 +34°C° 0 mm 2 m/s 756 mmHg 44%
17:00 +31°C° 0 mm 1 m/s 757 mmHg 52%
18:00 +29°C° 0 mm 1 m/s 757 mmHg 59%
19:00 +29°C° 0 mm 1 m/s 757 mmHg 63%
20:00 +28°C° 0 mm 1 m/s 758 mmHg 67%
21:00 +27°C° 0 mm 1 m/s 759 mmHg 72%
22:00 +26°C° 0 mm 1 m/s 759 mmHg 74%
23:00 +26°C° 0 mm 1 m/s 759 mmHg 77%

Poimâine, 3 Martie, Miercuri

Timp Temperatura Precipitaţii Vânt Presiune Umiditate
00:00 +26°C° 0 mm 1 m/s 759 mmHg 79%
01:00 +25°C° 0 mm 1 m/s 758 mmHg 81%
02:00 +25°C° 0 mm 1 m/s 758 mmHg 83%
03:00 +25°C° 0 mm 1 m/s 758 mmHg 85%
04:00 +24°C° 0 mm 1 m/s 758 mmHg 88%
05:00 +24°C° 0 mm 1 m/s 758 mmHg 90%
06:00 +23°C° 0 mm 1 m/s 758 mmHg 93%
07:00 +26°C° 0 mm 1 m/s 759 mmHg 82%
08:00 +28°C° 0 mm 1 m/s 759 mmHg 71%
09:00 +30°C° 0 mm 2 m/s 760 mmHg 60%
10:00 +33°C° 0 mm 1 m/s 759 mmHg 51%
11:00 +35°C° 0 mm 1 m/s 759 mmHg 43%
12:00 +39°C° 0 mm 1 m/s 758 mmHg 34%
13:00 +35°C° 0.1 mm 1 m/s 758 mmHg 45%
14:00 +32°C° 0.1 mm 2 m/s 757 mmHg 56%
15:00 +29°C° 0.1 mm 2 m/s 757 mmHg 67%
16:00 +28°C° 0 mm 2 m/s 757 mmHg 69%
17:00 +28°C° 0 mm 2 m/s 758 mmHg 71%
18:00 +27°C° 0 mm 2 m/s 758 mmHg 73%
19:00 +26°C° 0 mm 2 m/s 758 mmHg 78%
20:00 +25°C° 0 mm 2 m/s 759 mmHg 83%
21:00 +24°C° 0 mm 2 m/s 759 mmHg 88%
22:00 +24°C° 0 mm 1 m/s 760 mmHg 91%
23:00 +23°C° 0 mm 1 m/s 760 mmHg 93%

4 Martie, Joi

Timp Temperatura Precipitaţii Vânt Presiune Umiditate
00:00 +23°C° 0 mm 1 m/s 760 mmHg 96%
01:00 +23°C° 0 mm 1 m/s 760 mmHg 95%
02:00 +23°C° 0 mm 1 m/s 759 mmHg 94%
03:00 +23°C° 0 mm 1 m/s 759 mmHg 93%
04:00 +24°C° 0 mm 1 m/s 759 mmHg 90%
05:00 +24°C° 0 mm 1 m/s 760 mmHg 87%
06:00 +24°C° 0 mm 2 m/s 760 mmHg 84%
07:00 +25°C° 0.1 mm 2 m/s 760 mmHg 81%
08:00 +26°C° 0.1 mm 2 m/s 761 mmHg 78%
09:00 +26°C° 0.1 mm 2 m/s 761 mmHg 75%
10:00 +28°C° 0.1 mm 2 m/s 761 mmHg 66%
11:00 +31°C° 0.1 mm 2 m/s 760 mmHg 56%
12:00 +33°C° 0.1 mm 1 m/s 760 mmHg 47%
13:00 +32°C° 0.1 mm 2 m/s 759 mmHg 48%
14:00 +33°C° 0.1 mm 3 m/s 759 mmHg 49%
15:00 +32°C° 0.1 mm 4 m/s 758 mmHg 50%
16:00 +29°C° 0 mm 3 m/s 758 mmHg 55%
17:00 +28°C° 0 mm 3 m/s 758 mmHg 60%
18:00 +26°C° 0 mm 3 m/s 759 mmHg 65%
19:00 +25°C° 0 mm 2 m/s 759 mmHg 70%
20:00 +23°C° 0 mm 2 m/s 760 mmHg 75%
21:00 +21°C° 0 mm 2 m/s 760 mmHg 80%
22:00 +21°C° 0 mm 1 m/s 760 mmHg 83%
23:00 +20°C° 0 mm 1 m/s 760 mmHg 86%

5 Martie, Vineri

Timp Temperatura Precipitaţii Vânt Presiune Umiditate
00:00 +18°C° 0 mm 0 m/s 759 mmHg 89%
01:00 +17°C° 0 mm 0 m/s 759 mmHg 91%
02:00 +17°C° 0 mm 0 m/s 758 mmHg 93%
03:00 +16°C° 0 mm 0 m/s 758 mmHg 94%
04:00 +16°C° 0 mm 0 m/s 758 mmHg 95%
05:00 +16°C° 0 mm 0 m/s 758 mmHg 95%
06:00 +16°C° 0 mm 0 m/s 758 mmHg 96%
07:00 +20°C° 0 mm 1 m/s 759 mmHg 82%
08:00 +23°C° 0 mm 1 m/s 759 mmHg 68%
09:00 +26°C° 0 mm 1 m/s 759 mmHg 54%
10:00 +29°C° 0 mm 1 m/s 759 mmHg 45%
11:00 +31°C° 0 mm 0 m/s 758 mmHg 36%
12:00 +34°C° 0 mm 0 m/s 757 mmHg 27%
13:00 +36°C° 0 mm 1 m/s 757 mmHg 27%
14:00 +35°C° 0 mm 1 m/s 756 mmHg 27%
15:00 +35°C° 0 mm 2 m/s 755 mmHg 26%
16:00 +32°C° 0 mm 2 m/s 755 mmHg 36%
17:00 +29°C° 0 mm 2 m/s 755 mmHg 45%
18:00 +26°C° 0 mm 3 m/s 755 mmHg 54%
19:00 +25°C° 0 mm 2 m/s 756 mmHg 60%
20:00 +23°C° 0 mm 2 m/s 756 mmHg 66%
21:00 +21°C° 0 mm 2 m/s 757 mmHg 71%
22:00 +21°C° 0 mm 2 m/s 757 mmHg 73%
23:00 +20°C° 0 mm 2 m/s 757 mmHg 76%

6 Martie, Sâmbătă

Timp Temperatura Precipitaţii Vânt Presiune Umiditate
00:00 +20°C° 0 mm 2 m/s 757 mmHg 78%
01:00 +20°C° 0 mm 2 m/s 756 mmHg 79%
02:00 +20°C° 0 mm 2 m/s 756 mmHg 80%
03:00 +20°C° 0 mm 2 m/s 756 mmHg 81%
04:00 +19°C° 0 mm 2 m/s 756 mmHg 83%
05:00 +20°C° 0 mm 1 m/s 757 mmHg 84%
06:00 +20°C° 0 mm 1 m/s 757 mmHg 86%
07:00 +22°C° 0 mm 1 m/s 758 mmHg 77%
08:00 +24°C° 0 mm 1 m/s 758 mmHg 69%
09:00 +27°C° 0 mm 1 m/s 759 mmHg 60%
10:00 +28°C° 0 mm 2 m/s 759 mmHg 57%
11:00 +29°C° 0 mm 2 m/s 758 mmHg 54%
12:00 +30°C° 0 mm 2 m/s 758 mmHg 50%
13:00 +30°C° 0 mm 3 m/s 758 mmHg 48%
14:00 +31°C° 0 mm 3 m/s 757 mmHg 45%
15:00 +33°C° 0 mm 3 m/s 757 mmHg 42%
16:00 +30°C° 0 mm 3 m/s 757 mmHg 48%
17:00 +28°C° 0 mm 3 m/s 758 mmHg 54%
18:00 +26°C° 0 mm 3 m/s 758 mmHg 60%
19:00 +25°C° 0 mm 2 m/s 759 mmHg 65%
20:00 +24°C° 0 mm 2 m/s 759 mmHg 71%
21:00 +21°C° 0 mm 2 m/s 760 mmHg 77%
22:00 +21°C° 0 mm 1 m/s 760 mmHg 80%
23:00 +21°C° 0 mm 1 m/s 760 mmHg 83%
Arată mai mult

Formular de consimțământ

Meteoprog și furnizorii noștri de servicii pot stoca și accesa date personale, precum cookies, identificatori de dispozitiv sau alte tehnologii similare pe dispozitivul dumneavoastră și procesa astfel de date pentru a personaliza conținutul și reclamele, dar și pentru a oferi caracteristici de social media și pentru a analiza traficul.

  • Stocarea și/sau accesarea informațiilor pe dispozitivul dumneavoastră

    Cookies, identificatori de dispozitiv sau alte informații pot fi stocate sau accesate pe dispozitiv în scopurile indicate mai sus.

  • Reclame și conținut personalizat, evaluarea reclamelor și a conținutului, informații despre audiențe și dezvoltarea produselor

    Reclamele și conținutul pot fi personalizate pe baza unui profil. Pot fi adăugate date suplimentare pentru a personaliza mai bine reclamele și conținutul. Performanța reclamelor și conținutului poate fi măsurată. Pot fi obținute informații despre utilizatorii care au văzut reclamele și conținutul. Aceste date pot fi utilizate pentru a dezvolta sau îmbunătăți experiența utilizatorilor, sistemele și software-ul.

Dând clic pe ‘Sunt de acord’, permiteți utilizarea cookie-urilor menționate, a identificatorilor de dispozitiv, balizelor web sau altor tehnologii similare. Setările pot fi modificate din browser-ul dispozitivului dumneavoastră.

În anumite scopuri, interesele legitime pot prima asupra consimțământului. Puteți citi mai multe informații în acest sens în Politica privind Confidențialitatea Datelor și Cookie.